• In Deutschland
  • Länderverzeichnis
  • Für 7 Tage
  • Wassertemperatur
  • Satellitenkarten
  • Wetterkarte
  • Widgets
  • user-avatar
    Anmelden

    Stündliche Wetter Prenzlau

    Heute, 20 September, Donnerstag

    Zeit Temperatur Niederschläge Wind Luftdruck Luftfeuchtigkeit
    00:00 +20°C° 0 mm 3 m/S 760 mmHg 75%
    01:00 +20°C° 0 mm 3 m/S 760 mmHg 77%
    02:00 +19°C° 0 mm 2 m/S 760 mmHg 78%
    03:00 +19°C° 0 mm 2 m/S 760 mmHg 80%
    04:00 +18°C° 0 mm 2 m/S 760 mmHg 82%
    05:00 +18°C° 0 mm 2 m/S 761 mmHg 80%
    06:00 +18°C° 0 mm 2 m/S 761 mmHg 78%
    07:00 +19°C° 0 mm 2 m/S 761 mmHg 77%
    08:00 +20°C° 0 mm 3 m/S 761 mmHg 70%
    09:00 +22°C° 0 mm 3 m/S 761 mmHg 63%
    10:00 +23°C° 0 mm 4 m/S 761 mmHg 56%
    11:00 +25°C° 0 mm 4 m/S 761 mmHg 53%
    12:00 +26°C° 0 mm 4 m/S 760 mmHg 50%
    13:00 +27°C° 0 mm 4 m/S 760 mmHg 47%
    14:00 +28°C° 0 mm 4 m/S 760 mmHg 47%
    15:00 +28°C° 0 mm 4 m/S 759 mmHg 47%
    16:00 +28°C° 0 mm 4 m/S 759 mmHg 47%
    17:00 +26°C° 0 mm 4 m/S 759 mmHg 52%
    18:00 +25°C° 0 mm 3 m/S 758 mmHg 57%
    19:00 +23°C° 0 mm 2 m/S 758 mmHg 62%
    20:00 +21°C° 0 mm 2 m/S 758 mmHg 64%
    21:00 +21°C° 0 mm 2 m/S 758 mmHg 65%
    22:00 +20°C° 0 mm 2 m/S 758 mmHg 67%
    23:00 +20°C° 0 mm 3 m/S 757 mmHg 69%

    Morgen, 21 September, Freitag

    Zeit Temperatur Niederschläge Wind Luftdruck Luftfeuchtigkeit
    00:00 +20°C° 0 mm 3 m/S 757 mmHg 70%
    01:00 +19°C° 0 mm 3 m/S 757 mmHg 71%
    02:00 +19°C° 0 mm 3 m/S 756 mmHg 72%
    03:00 +20°C° 0 mm 4 m/S 756 mmHg 73%
    04:00 +20°C° 0 mm 4 m/S 755 mmHg 74%
    05:00 +20°C° 0 mm 5 m/S 755 mmHg 73%
    06:00 +20°C° 0 mm 5 m/S 754 mmHg 71%
    07:00 +21°C° 0 mm 6 m/S 754 mmHg 70%
    08:00 +22°C° 0 mm 6 m/S 753 mmHg 64%
    09:00 +24°C° 0 mm 7 m/S 753 mmHg 58%
    10:00 +26°C° 0 mm 8 m/S 752 mmHg 52%
    11:00 +28°C° 0 mm 8 m/S 752 mmHg 48%
    12:00 +29°C° 0 mm 9 m/S 751 mmHg 44%
    13:00 +31°C° 0 mm 9 m/S 750 mmHg 40%
    14:00 +26°C° 0.3 mm 9 m/S 751 mmHg 49%
    15:00 +22°C° 0.3 mm 9 m/S 751 mmHg 59%
    16:00 +17°C° 0.3 mm 9 m/S 752 mmHg 68%
    17:00 +16°C° 0.1 mm 8 m/S 753 mmHg 70%
    18:00 +15°C° 0.1 mm 6 m/S 754 mmHg 71%
    19:00 +13°C° 0.1 mm 5 m/S 755 mmHg 73%
    20:00 +13°C° 0 mm 4 m/S 756 mmHg 71%
    21:00 +13°C° 0 mm 4 m/S 756 mmHg 69%
    22:00 +12°C° 0 mm 4 m/S 757 mmHg 67%
    23:00 +12°C° 0 mm 5 m/S 757 mmHg 65%

    übermorgen, 22 September, Samstag

    Zeit Temperatur Niederschläge Wind Luftdruck Luftfeuchtigkeit
    00:00 +12°C° 0 mm 5 m/S 757 mmHg 62%
    01:00 +10°C° 0 mm 6 m/S 757 mmHg 59%
    02:00 +10°C° 0 mm 6 m/S 757 mmHg 61%
    03:00 +10°C° 0 mm 6 m/S 757 mmHg 63%
    04:00 +10°C° 0 mm 6 m/S 758 mmHg 65%
    05:00 +10°C° 0 mm 6 m/S 758 mmHg 66%
    06:00 +10°C° 0 mm 6 m/S 759 mmHg 67%
    07:00 +10°C° 0 mm 6 m/S 759 mmHg 69%
    08:00 +13°C° 0 mm 6 m/S 759 mmHg 64%
    09:00 +14°C° 0 mm 7 m/S 759 mmHg 60%
    10:00 +15°C° 0 mm 7 m/S 760 mmHg 55%
    11:00 +16°C° 0.1 mm 7 m/S 760 mmHg 52%
    12:00 +16°C° 0.1 mm 8 m/S 759 mmHg 49%
    13:00 +17°C° 0.1 mm 8 m/S 759 mmHg 47%
    14:00 +17°C° 0 mm 8 m/S 759 mmHg 47%
    15:00 +16°C° 0 mm 8 m/S 759 mmHg 47%
    16:00 +16°C° 0 mm 7 m/S 759 mmHg 47%
    17:00 +15°C° 0 mm 6 m/S 759 mmHg 50%
    18:00 +14°C° 0 mm 6 m/S 760 mmHg 54%
    19:00 +12°C° 0 mm 5 m/S 760 mmHg 58%
    20:00 +12°C° 0 mm 5 m/S 760 mmHg 59%
    21:00 +12°C° 0 mm 5 m/S 760 mmHg 61%
    22:00 +10°C° 0 mm 5 m/S 760 mmHg 63%
    23:00 +10°C° 0 mm 5 m/S 761 mmHg 65%

    23 September, Sonntag

    Zeit Temperatur Niederschläge Wind Luftdruck Luftfeuchtigkeit
    00:00 +9°C° 0 mm 5 m/S 761 mmHg 67%
    01:00 +9°C° 0 mm 5 m/S 761 mmHg 69%
    02:00 +8°C° 0 mm 5 m/S 761 mmHg 72%
    03:00 +8°C° 0 mm 4 m/S 760 mmHg 74%
    04:00 +8°C° 0 mm 4 m/S 760 mmHg 76%
    05:00 +8°C° 0 mm 4 m/S 760 mmHg 76%
    06:00 +8°C° 0 mm 4 m/S 760 mmHg 75%
    07:00 +8°C° 0 mm 4 m/S 760 mmHg 75%
    08:00 +11°C° 0 mm 4 m/S 760 mmHg 69%
    09:00 +12°C° 0 mm 4 m/S 759 mmHg 63%
    10:00 +14°C° 0 mm 4 m/S 759 mmHg 57%
    11:00 +14°C° 0 mm 4 m/S 758 mmHg 55%
    12:00 +14°C° 0 mm 4 m/S 757 mmHg 52%
    13:00 +15°C° 0 mm 4 m/S 756 mmHg 49%
    14:00 +14°C° 0.8 mm 4 m/S 755 mmHg 58%
    15:00 +12°C° 0.8 mm 4 m/S 754 mmHg 68%
    16:00 +11°C° 0.8 mm 3 m/S 753 mmHg 77%
    17:00 +10°C° 2.8 mm 5 m/S 751 mmHg 81%
    18:00 +10°C° 2.8 mm 6 m/S 750 mmHg 85%
    19:00 +10°C° 2.8 mm 7 m/S 748 mmHg 90%
    20:00 +11°C° 4.8 mm 7 m/S 746 mmHg 91%
    21:00 +11°C° 4.8 mm 6 m/S 744 mmHg 93%
    22:00 +13°C° 4.8 mm 6 m/S 742 mmHg 94%
    23:00 +14°C° 2.1 mm 6 m/S 741 mmHg 94%

    24 September, Montag

    Zeit Temperatur Niederschläge Wind Luftdruck Luftfeuchtigkeit
    00:00 +15°C° 2.1 mm 5 m/S 739 mmHg 93%
    01:00 +16°C° 2.1 mm 5 m/S 737 mmHg 92%
    02:00 +15°C° 0.7 mm 6 m/S 737 mmHg 90%
    03:00 +14°C° 0.7 mm 6 m/S 737 mmHg 87%
    04:00 +12°C° 0.7 mm 7 m/S 737 mmHg 85%
    05:00 +11°C° 0.5 mm 9 m/S 739 mmHg 85%
    06:00 +11°C° 0.5 mm 11 m/S 740 mmHg 85%
    07:00 +9°C° 0.5 mm 14 m/S 741 mmHg 84%
    08:00 +9°C° 0.7 mm 13 m/S 744 mmHg 80%
    09:00 +9°C° 0.7 mm 12 m/S 746 mmHg 76%
    10:00 +11°C° 0.7 mm 11 m/S 748 mmHg 72%
    11:00 +10°C° 0.3 mm 12 m/S 750 mmHg 69%
    12:00 +12°C° 0.3 mm 12 m/S 751 mmHg 65%
    13:00 +13°C° 0.3 mm 12 m/S 753 mmHg 62%
    14:00 +12°C° 0.4 mm 11 m/S 755 mmHg 64%
    15:00 +12°C° 0.4 mm 10 m/S 756 mmHg 66%
    16:00 +11°C° 0.4 mm 9 m/S 757 mmHg 68%
    17:00 +10°C° 0.2 mm 8 m/S 758 mmHg 71%
    18:00 +10°C° 0.2 mm 7 m/S 759 mmHg 74%
    19:00 +9°C° 0.2 mm 7 m/S 760 mmHg 77%
    20:00 +9°C° 0.1 mm 6 m/S 761 mmHg 77%
    21:00 +8°C° 0.1 mm 6 m/S 761 mmHg 76%
    22:00 +8°C° 0.1 mm 6 m/S 762 mmHg 76%
    23:00 +8°C° 0 mm 6 m/S 762 mmHg 76%

    25 September, Dienstag

    Zeit Temperatur Niederschläge Wind Luftdruck Luftfeuchtigkeit
    00:00 +7°C° 0 mm 6 m/S 763 mmHg 76%
    01:00 +7°C° 0 mm 5 m/S 763 mmHg 76%
    02:00 +7°C° 0.2 mm 5 m/S 763 mmHg 78%
    03:00 +7°C° 0.2 mm 5 m/S 764 mmHg 81%
    04:00 +7°C° 0.2 mm 5 m/S 764 mmHg 83%
    05:00 +7°C° 0.2 mm 5 m/S 764 mmHg 82%
    06:00 +7°C° 0.2 mm 5 m/S 765 mmHg 80%
    07:00 +7°C° 0.2 mm 5 m/S 766 mmHg 79%
    08:00 +9°C° 0.1 mm 6 m/S 766 mmHg 72%
    09:00 +10°C° 0.1 mm 6 m/S 767 mmHg 65%
    10:00 +11°C° 0.1 mm 7 m/S 767 mmHg 58%
    11:00 +12°C° 0.1 mm 7 m/S 768 mmHg 55%
    12:00 +14°C° 0.1 mm 7 m/S 768 mmHg 53%
    13:00 +14°C° 0.1 mm 6 m/S 768 mmHg 51%
    14:00 +14°C° 0 mm 6 m/S 768 mmHg 52%
    15:00 +14°C° 0 mm 6 m/S 768 mmHg 53%
    16:00 +14°C° 0 mm 5 m/S 768 mmHg 55%
    17:00 +13°C° 0 mm 4 m/S 768 mmHg 61%
    18:00 +12°C° 0 mm 4 m/S 768 mmHg 68%
    19:00 +11°C° 0 mm 3 m/S 769 mmHg 75%
    20:00 +10°C° 0 mm 3 m/S 769 mmHg 79%
    21:00 +10°C° 0 mm 3 m/S 769 mmHg 83%
    22:00 +10°C° 0 mm 3 m/S 769 mmHg 86%
    23:00 +9°C° 0 mm 3 m/S 769 mmHg 87%
    Mehr zeigen